Precipitable_Water
1.41 1.46 1.53 1.61 1.68 1.69 1.66 1.67 1.69 1.70 1.59 1.51 1.45 1.33 1.27 1.15 1.14 1.11 1.08 1.06 0.98 1.00 1.03 1.04 1.04 1.03 1.03 0.98 0.93 0.96 0.94 0.94 0.80 0.89 1.03 1.08 1.01 1.05 1.11 1.17 1.18 1.24 1.32
1.39 1.43 1.46 1.52 1.60 1.62 1.64 1.67 1.79 1.80 1.73 1.63 1.53 1.32 1.24 1.14 1.18 1.14 1.10 1.16 1.12 1.15 1.19 1.11 1.05 1.03 1.00 0.99 0.91 0.87 0.86 0.89 0.82 0.77 0.91 0.94 1.01 1.11 1.12 1.04 1.03 1.07 1.22
1.37 1.38 1.42 1.45 1.55 1.61 1.66 1.70 1.78 1.81 1.77 1.66 1.56 1.37 1.22 1.15 1.21 1.22 1.23 1.18 1.19 1.23 1.25 1.17 1.11 1.05 0.99 0.97 0.89 0.84 0.84 0.82 0.83 0.79 0.77 0.88 0.94 1.01 1.05 1.05 1.07 1.15 1.20
1.52 1.50 1.46 1.48 1.56 1.61 1.68 1.74 1.77 1.81 1.78 1.72 1.61 1.51 1.30 1.21 1.23 1.24 1.25 1.23 1.27 1.31 1.29 1.27 1.18 1.10 1.01 0.96 0.92 0.92 0.91 0.83 0.84 0.74 0.71 0.74 0.80 0.94 0.97 0.89 0.87 1.07 1.03
1.68 1.68 1.69 1.74 1.78 1.79 1.81 1.84 1.86 1.90 1.87 1.88 1.79 1.65 1.35 1.28 1.30 1.28 1.23 1.26 1.27 1.26 1.28 1.28 1.27 1.15 1.04 0.98 0.96 1.10 1.00 0.86 0.73 0.67 0.65 0.70 0.76 0.84 0.83 0.92 0.83 0.89 0.95
1.79 1.81 1.88 1.95 2.03 2.02 1.98 1.87 1.91 1.91 1.92 1.87 1.81 1.79 1.57 1.28 1.38 1.34 1.34 1.30 1.34 1.32 1.28 1.32 1.26 1.15 1.08 1.01 0.94 0.95 0.88 0.80 0.77 0.74 0.68 0.75 0.76 0.83 0.93 0.93 0.85 0.81 0.71
1.82 1.84 1.88 1.96 2.00 2.02 2.06 2.12 1.76 1.71 1.75 1.79 1.90 1.86 1.72 1.41 1.37 1.40 1.37 1.41 1.42 1.37 1.32 1.27 1.22 1.19 1.15 1.12 1.15 1.02 0.92 0.80 0.78 0.73 0.66 0.70 0.73 0.86 0.91 0.87 0.94 0.89 0.79
1.55 1.58 1.70 1.77 1.81 1.86 1.87 1.84 1.82 1.73 1.77 1.75 1.79 1.88 1.90 1.71 1.46 1.43 1.49 1.47 1.49 1.44 1.37 1.30 1.21 1.14 1.20 1.14 1.09 1.05 0.96 0.88 0.87 0.78 0.66 0.66 0.74 0.83 0.82 0.84 0.81 0.83 0.84
1.44 1.46 1.56 1.67 1.69 1.73 1.67 1.66 1.69 1.69 1.68 1.71 1.74 1.73 1.72 1.70 1.66 1.52 1.54 1.58 1.53 1.47 1.40 1.37 1.23 1.13 1.10 0.95 0.91 0.93 0.90 0.85 0.87 0.72 0.63 0.59 0.54 0.55 0.66 0.68 0.65 0.71 0.73
1.39 1.47 1.54 1.56 1.56 1.49 1.43 1.41 1.47 1.53 1.55 1.66 1.66 1.74 1.68 1.64 1.63 1.54 1.53 1.68 1.58 1.48 1.40 1.30 1.09 1.01 0.98 0.83 0.86 0.89 0.85 0.86 0.81 0.82 0.84 0.85 0.81 0.77 0.68 0.65 0.72 0.67 0.72
1.38 1.39 1.36 1.35 1.34 1.33 1.31 1.31 1.38 1.44 1.54 1.62 1.69 1.73 1.70 1.64 1.63 1.58 1.60 1.68 1.55 1.46 1.27 1.12 1.02 0.97 0.91 0.82 0.80 0.90 0.89 0.88 0.83 0.84 0.85 0.86 0.86 0.86 0.84 0.87 0.90 0.86 0.77
1.30 1.29 1.32 1.37 1.39 1.39 1.38 1.41 1.46 1.50 1.61 1.70 1.74 1.70 1.70 1.67 1.64 1.65 1.67 1.63 1.59 1.43 1.27 1.16 1.12 0.98 0.93 0.93 0.91 0.94 0.90 0.87 0.88 0.87 0.86 0.86 0.89 0.88 0.92 0.96 0.99 1.12 1.13
1.33 1.41 1.49 1.54 1.54 1.49 1.42 1.38 1.46 1.60 1.63 1.66 1.66 1.63 1.63 1.71 1.69 1.67 1.57 1.52 1.47 1.45 1.49 1.39 1.19 1.06 1.07 1.08 1.05 1.03 0.98 0.94 0.96 0.93 0.90 0.90 0.96 1.01 1.02 1.01 1.03 1.08 1.11
1.40 1.42 1.50 1.46 1.43 1.39 1.39 1.44 1.45 1.50 1.53 1.57 1.53 1.51 1.51 1.52 1.51 1.51 1.46 1.45 1.46 1.48 1.47 1.42 1.37 1.24 1.15 1.17 1.13 1.12 1.13 1.12 1.08 1.05 1.03 1.03 1.05 1.04 1.04 1.07 1.01 1.00 0.97
1.34 1.37 1.38 1.38 1.35 1.30 1.28 1.28 1.28 1.32 1.38 1.32 1.33 1.35 1.31 1.29 1.36 1.46 1.46 1.46 1.46 1.45 1.44 1.42 1.34 1.30 1.30 1.30 1.29 1.30 1.28 1.24 1.18 1.19 1.18 1.16 1.12 1.08 1.05 1.11 1.12 1.08 1.01
1.27 1.25 1.28 1.33 1.38 1.39 1.34 1.31 1.37 1.39 1.40 1.38 1.40 1.45 1.41 1.42 1.41 1.39 1.33 1.30 1.32 1.37 1.34 1.33 1.32 1.36 1.35 1.31 1.26 1.24 1.23 1.20 1.22 1.23 1.19 1.22 1.20 1.17 1.11 1.10 1.13 1.13 1.07
1.20 1.23 1.20 1.25 1.25 1.26 1.28 1.27 1.23 1.34 1.38 1.38 1.39 1.39 1.37 1.34 1.35 1.36 1.37 1.38 1.42 1.42 1.36 1.29 1.25 1.21 1.12 1.12 1.14 1.16 1.15 1.18 1.19 1.16 1.15 1.15 1.15 1.13 1.13 1.10 1.07 1.01 0.96
1.27 1.20 1.32 1.34 1.34 1.37 1.39 1.37 1.35 1.30 1.27 1.32 1.43 1.43 1.41 1.38 1.39 1.39 1.37 1.32 1.23 1.24 1.18 1.10 1.05 1.05 1.02 1.04 1.02 1.03 0.98 0.96 0.93 0.96 0.94 0.98 0.98 0.94 0.93 0.99 0.93 0.89 0.90
1.32 1.34 1.38 1.39 1.41 1.41 1.41 1.39 1.35 1.29 1.20 1.16 1.15 1.12 1.08 1.02 0.94 0.87 0.81 0.72 0.64 0.62 0.66 0.67 0.66 0.64 0.66 0.66 0.63 0.62 0.62 0.59 0.56 0.59 0.58 0.58 0.59 0.60 0.62 0.66 0.69 0.73 0.81
1.31 1.30 1.27 1.27 1.29 1.30 1.27 1.19 1.12 1.02 0.96 0.89 0.84 0.79 0.72 0.62 0.55 0.52 0.53 0.53 0.51 0.50 0.52 0.52 0.53 0.52 0.52 0.51 0.51 0.51 0.50 0.51 0.51 0.50 0.50 0.50 0.50 0.48 0.47 0.48 0.50 0.51 0.56
1.26 1.18 1.15 1.17 1.16 1.18 1.11 0.88 0.73 0.64 0.58 0.53 0.51 0.46 0.43 0.47 0.49 0.51 0.52 0.50 0.50 0.50 0.52 0.51 0.53 0.54 0.55 0.55 0.56 0.56 0.55 0.54 0.54 0.53 0.52 0.52 0.53 0.51 0.51 0.50 0.49 0.49 0.48
0.84 0.77 0.72 0.68 0.62 0.53 0.47 0.45 0.45 0.46 0.48 0.49 0.51 0.51 0.46 0.49 0.49 0.49 0.49 0.51 0.52 0.52 0.53 0.54 0.53 0.53 0.54 0.55 0.56 0.54 0.53 0.53 0.53 0.54 0.54 0.54 0.53 0.52 0.52 0.51 0.50 0.49 0.49
0.47 0.44 0.42 0.42 0.42 0.43 0.44 0.44 0.44 0.44 0.44 0.45 0.45 0.45 0.45 0.44 0.45 0.46 0.47 0.49 0.51 0.52 0.55 0.56 0.57 0.57 0.58 0.58 0.59 0.59 0.58 0.57 0.58 0.60 0.56 0.55 0.55 0.54 0.53 0.52 0.51 0.50 0.49
0.43 0.44 0.44 0.44 0.43 0.43 0.43 0.42 0.43 0.42 0.42 0.44 0.45 0.46 0.47 0.49 0.50 0.51 0.52 0.53 0.54 0.55 0.57 0.59 0.60 0.60 0.60 0.61 0.62 0.63 0.60 0.60 0.60 0.59 0.56 0.54 0.55 0.54 0.54 0.54 0.53 0.52 0.51
0.47 0.47 0.45 0.43 0.42 0.43 0.44 0.45 0.46 0.47 0.47 0.48 0.49 0.50 0.52 0.54 0.54 0.55 0.57 0.58 0.59 0.60 0.62 0.64 0.64 0.63 0.62 0.63 0.63 0.63 0.64 0.64 0.65 0.62 0.61 0.62 0.59 0.58 0.57 0.55 0.54 0.52 0.51
0.47 0.45 0.46 0.48 0.48 0.47 0.48 0.47 0.48 0.49 0.50 0.51 0.52 0.54 0.55 0.55 0.57 0.58 0.59 0.60 0.61 0.62 0.64 0.64 0.63 0.62 0.62 0.64 0.64 0.65 0.65 0.64 0.63 0.62 0.62 0.61 0.59 0.58 0.58 0.60 0.59 0.59 0.58
Wind_Speed
7 8 10 10 10 11 12 12 12 12 12 11 11 10 10 9 8 8 8 8 8 8 8 9 9 9 9 10 10 10 11 12 13 14 13 14 15 14 15 16 17 17 17
6 8 10 11 12 13 13 14 14 14 14 14 14 13 12 12 11 11 10 9 10 9 9 9 10 10 10 11 11 11 12 13 14 15 15 15 15 16 16 16 16 17 17
9 11 12 13 14 15 16 17 17 18 17 17 17 16 16 14 14 13 13 12 12 12 12 12 12 12 13 13 13 14 14 14 15 16 17 17 17 17 17 17 17 17 18
13 13 14 16 17 18 19 20 21 22 22 21 21 20 20 18 17 16 15 14 14 14 14 14 14 14 15 15 15 16 16 16 16 17 18 18 18 17 18 18 18 18 19
17 18 19 20 21 21 22 22 23 24 24 25 25 25 24 23 21 19 18 17 17 17 16 17 17 16 16 17 17 16 17 17 18 18 18 18 18 18 18 18 19 20 21
21 21 22 23 24 24 24 24 24 25 27 28 29 29 29 28 26 24 22 21 20 19 19 18 19 18 18 18 18 18 18 18 18 18 18 17 18 18 18 18 19 18 18
22 23 24 24 25 25 26 27 30 33 36 35 32 34 32 31 30 29 28 25 24 22 21 21 20 20 19 20 19 19 20 19 19 18 18 18 18 18 19 19 18 19 19
22 23 23 24 25 25 27 28 31 30 31 30 32 30 32 31 31 31 31 30 28 26 24 23 22 22 21 21 21 20 20 19 19 18 19 19 19 18 19 19 20 20 21
19 20 19 20 21 24 27 28 29 29 30 31 30 31 32 34 32 32 32 32 30 28 26 24 23 22 21 21 21 20 19 19 18 18 19 19 20 20 21 20 20 20 20
18 19 19 20 22 24 27 28 30 31 33 33 35 34 33 33 33 33 33 32 31 29 27 25 24 23 21 20 20 20 20 19 19 19 19 19 20 20 21 21 21 21 21
18 18 19 20 21 23 25 29 30 30 30 30 30 31 31 32 32 31 31 33 29 27 26 24 23 22 21 21 20 20 19 19 20 20 20 20 20 20 20 20 21 22 23
17 17 18 20 21 21 23 26 24 24 22 22 24 24 25 26 27 28 27 28 26 27 25 23 22 21 20 20 20 20 20 21 21 21 21 21 21 20 20 21 21 22 23
18 18 18 18 18 20 20 21 19 13 9 9 10 14 13 15 19 20 22 23 25 24 25 22 22 21 20 21 21 21 21 22 22 22 22 22 22 22 23 24 24 25 25
17 17 16 16 16 15 14 15 14 12 9 5 1 2 5 7 10 15 18 19 21 22 23 22 22 22 22 22 22 22 22 23 24 24 24 24 24 24 25 25 24 24 25
16 15 14 14 13 11 12 13 11 10 8 7 5 3 5 7 9 9 11 13 16 16 18 20 20 21 23 23 24 24 24 24 24 24 25 25 25 25 26 26 26 26 26
13 13 12 12 11 11 10 10 10 9 8 7 7 6 6 6 7 8 9 11 12 13 15 17 19 20 21 21 22 23 24 25 25 26 27 27 27 27 28 27 28 29 29
13 12 12 11 10 11 10 10 9 9 9 9 9 9 8 9 10 11 12 13 14 16 16 19 20 21 23 24 25 26 27 28 28 29 29 29 29 30 30 31 31 32 32
14 14 13 12 12 12 12 12 12 11 12 12 11 11 12 13 14 14 15 17 17 18 20 20 21 22 23 24 25 27 28 29 30 30 30 31 32 33 34 35 35 35 35
14 14 14 13 13 14 13 13 12 12 13 14 15 16 16 16 16 17 18 18 19 19 20 21 22 23 24 25 26 27 28 29 30 30 31 31 32 33 34 35 35 36 36
13 13 13 13 13 15 14 14 14 14 15 16 16 17 18 18 19 19 19 19 20 21 21 22 23 24 24 25 26 26 27 27 28 29 30 31 32 33 34 35 35 36 36
12 12 13 13 13 14 14 15 15 16 17 18 18 19 20 20 20 21 22 21 22 22 23 23 24 24 25 25 25 26 27 28 29 30 30 31 31 32 33 33 34 34 34
12 12 13 14 14 15 16 17 17 18 19 19 20 20 21 21 22 22 22 23 23 23 24 24 24 24 24 25 26 27 28 30 30 31 31 32 32 32 32 32 32 32 32
13 14 15 16 16 16 17 18 19 19 19 20 20 21 21 21 22 23 23 23 23 23 23 23 24 25 26 27 29 29 30 31 31 31 32 32 32 32 32 32 32 31 31
14 15 16 16 17 18 19 18 18 19 19 20 20 20 21 22 22 22 22 22 22 23 24 24 25 27 28 29 29 30 31 31 31 31 32 33 33 33 32 32 32 32 31
15 16 17 17 18 18 17 18 18 18 18 19 19 20 20 21 21 22 23 24 24 25 26 27 28 29 30 31 32 34 34 34 33 34 35 35 35 35 34 34 34 33 32
16 17 17 17 16 16 16 16 17 17 18 19 19 20 21 23 24 26 27 27 27 28 29 30 31 32 33 33 34 34 33 34 35 36 36 37 37 37 37 37 36 35 35
Wind_Direction
246 245 247 249 250 248 250 248 251 254 255 257 257 259 262 264 264 264 264 264 260 262 265 269 273 276 278 280 282 281 278 276 274 273 278 278 282 276 274 275 273 273 271
265 257 257 256 257 255 255 252 254 257 259 260 259 259 260 261 261 261 259 260 260 261 264 270 272 275 277 280 283 283 280 277 277 277 277 278 278 278 277 277 275 273 271
274 269 265 261 261 261 259 258 258 259 261 261 259 259 260 259 259 259 259 259 260 262 265 270 274 275 276 280 282 284 282 280 278 278 278 277 277 277 276 275 275 274 275
275 277 274 267 264 265 265 263 261 261 262 261 259 258 257 257 257 257 257 258 260 263 267 271 274 275 278 279 280 281 282 282 280 280 279 278 277 276 276 275 276 275 277
280 279 276 274 268 266 266 266 265 264 264 261 259 258 256 254 254 254 256 257 260 263 267 271 272 275 278 279 280 281 283 282 282 281 280 279 277 278 278 277 277 278 278
283 281 281 276 271 269 269 268 266 266 265 263 261 258 255 252 251 251 254 257 260 263 267 270 271 273 275 278 279 279 281 283 283 283 280 280 278 278 277 278 280 279 278
289 286 285 280 275 270 269 264 269 274 269 262 263 259 252 250 249 250 252 256 258 261 265 269 271 272 275 277 277 279 278 279 279 279 279 279 278 279 279 278 278 278 277
295 293 290 286 282 279 282 281 281 278 271 263 261 257 247 248 249 250 251 253 255 258 262 266 268 271 275 277 277 276 278 278 278 276 278 278 278 278 278 278 278 277 277
305 303 300 295 289 287 288 285 283 278 271 265 261 255 251 249 250 250 250 249 252 254 258 261 265 269 273 275 275 274 275 277 277 277 279 279 278 278 277 277 276 276 277
309 306 305 301 298 297 296 292 288 281 274 266 261 256 251 250 251 253 246 247 248 252 255 258 261 265 270 272 272 273 275 276 278 280 281 281 280 280 276 273 273 274 276
314 312 309 308 307 308 305 303 295 286 277 270 259 254 251 250 252 248 249 240 243 248 252 253 259 262 266 269 269 272 274 277 279 280 281 283 283 281 278 274 274 273 273
320 317 315 313 312 314 317 320 311 300 282 273 254 250 251 250 247 244 239 240 250 250 247 251 256 260 263 266 268 270 274 277 279 280 281 280 281 280 279 277 278 277 273
320 319 318 320 322 322 327 336 337 334 317 297 260 243 237 237 234 237 242 246 253 251 246 257 256 260 262 266 268 272 275 277 279 280 280 280 279 280 280 280 279 278 277
323 323 323 326 330 335 337 346 358 7 15 358 303 196 205 217 244 252 248 252 254 255 251 255 258 261 263 267 269 271 274 277 280 281 281 281 281 279 279 280 280 279 278
328 326 325 332 333 337 344 346 358 5 8 20 22 351 283 261 261 264 267 260 260 260 257 259 263 267 268 269 272 274 276 280 281 282 282 283 282 281 280 280 278 277 277
335 338 336 334 332 335 337 348 353 350 351 354 351 336 324 313 297 286 283 281 278 275 273 272 275 275 275 277 278 278 281 282 283 284 285 282 282 282 281 280 278 277 276
330 330 331 329 328 330 331 334 337 346 347 341 333 325 318 314 307 299 295 295 291 286 285 286 282 282 282 281 281 282 283 283 284 284 284 282 282 282 283 281 280 279 277
319 318 319 321 322 322 320 321 320 319 320 324 323 319 316 312 307 301 297 295 293 289 290 289 287 285 285 284 284 284 285 285 286 285 285 283 283 283 282 281 281 280 279
323 320 316 315 318 322 321 320 318 314 312 310 308 308 308 307 306 303 301 297 295 293 292 290 289 289 288 288 288 287 288 288 288 287 286 286 285 285 284 283 282 280 279
326 326 324 319 319 318 322 320 317 316 314 313 312 311 309 306 306 306 304 301 299 297 296 294 294 293 292 291 291 291 290 290 290 290 289 289 288 287 286 285 283 281 279
323 325 323 322 320 317 317 317 316 314 312 311 311 311 309 307 307 305 303 301 300 299 298 297 296 296 295 294 294 293 293 292 292 292 291 290 289 288 288 286 285 283 281
324 324 324 323 321 319 316 315 313 312 311 310 309 309 309 307 307 306 305 303 301 301 300 299 299 299 298 296 296 295 294 294 293 293 292 291 291 290 289 288 287 285 283
319 320 320 320 319 317 316 316 315 314 313 312 311 310 310 309 308 308 307 305 303 302 301 300 300 299 299 299 298 297 296 295 294 293 292 291 291 290 289 288 287 286 284
320 320 320 320 318 317 316 316 315 315 315 314 314 313 313 313 312 311 310 309 307 305 304 303 302 301 301 301 300 299 298 296 294 292 291 291 289 289 289 287 286 284 282
320 320 319 320 320 320 320 320 320 320 320 319 318 318 317 316 315 313 311 309 307 305 303 302 302 302 302 302 300 299 298 296 293 292 291 290 288 286 286 285 284 282 280
319 319 320 320 321 323 324 324 323 323 322 321 320 319 318 316 316 315 311 308 307 306 303 302 302 302 302 302 302 301 299 296 295 294 292 290 289 286 284 281 281 280 276